TimeEDT,TemperatureF,Dew PointF,Humidity,Sea Level PressureIn,VisibilityMPH,Wind Direction,Wind SpeedMPH,Gust SpeedMPH,PrecipitationIn,Events,Conditions,WindDirDegrees,DateUTC
12:52 AM,70.0,68.0,93,30.03,10.0,WSW,3.5,-,N/A,,Clear,250,2013-07-30 04:52:00
1:52 AM,66.9,64.9,93,30.03,10.0,Calm,Calm,-,N/A,,Clear,0,2013-07-30 05:52:00
2:52 AM,66.0,63.0,90,30.04,10.0,Calm,Calm,-,N/A,,Clear,0,2013-07-30 06:52:00
3:28 AM,63.0,61.0,93,30.05,1.8,Calm,Calm,-,N/A,,Clear,0,2013-07-30 07:28:00
3:35 AM,61.0,60.1,97,30.04,0.8,Calm,Calm,-,N/A,,Clear,0,2013-07-30 07:35:00
3:52 AM,61.0,59.0,93,30.04,0.5,Calm,Calm,-,N/A,Fog,Fog,0,2013-07-30 07:52:00
4:13 AM,60.1,59.0,96,30.04,0.2,Calm,Calm,-,N/A,Fog,Fog,0,2013-07-30 08:13:00
4:52 AM,57.9,57.9,100,30.04,0.2,WNW,4.6,-,N/A,Fog,Fog,290,2013-07-30 08:52:00
4:59 AM,61.0,60.1,97,30.04,1.5,West,3.5,-,N/A,,Partly Cloudy,280,2013-07-30 08:59:00
5:06 AM,61.0,60.1,97,30.04,10.0,WNW,3.5,-,N/A,,Clear,290,2013-07-30 09:06:00
5:52 AM,59.0,57.0,93,30.06,7.0,West,3.5,-,N/A,,Clear,280,2013-07-30 09:52:00
6:52 AM,63.0,60.1,90,30.07,10.0,Calm,Calm,-,N/A,,Clear,0,2013-07-30 10:52:00
7:52 AM,69.1,59.0,70,30.07,10.0,Variable,3.5,-,N/A,,Clear,0,2013-07-30 11:52:00
8:52 AM,73.0,57.0,57,30.08,10.0,NW,5.8,-,N/A,,Clear,310,2013-07-30 12:52:00
9:52 AM,75.9,57.0,52,30.08,10.0,NW,8.1,-,N/A,,Clear,310,2013-07-30 13:52:00
10:52 AM,77.0,57.0,50,30.09,10.0,Variable,5.8,-,N/A,,Clear,0,2013-07-30 14:52:00
11:52 AM,80.1,57.0,45,30.08,10.0,NW,5.8,-,N/A,,Clear,320,2013-07-30 15:52:00
12:52 PM,81.0,57.0,44,30.06,10.0,West,8.1,-,N/A,,Clear,270,2013-07-30 16:52:00
1:52 PM,82.0,57.9,44,30.05,10.0,West,9.2,-,N/A,,Clear,260,2013-07-30 17:52:00
2:52 PM,82.0,57.0,42,30.04,10.0,NNW,6.9,-,N/A,,Scattered Clouds,330,2013-07-30 18:52:00
3:52 PM,82.0,55.9,41,30.03,10.0,Variable,6.9,-,N/A,,Partly Cloudy,0,2013-07-30 19:52:00
4:52 PM,82.0,55.9,41,30.03,10.0,WNW,5.8,-,N/A,,Scattered Clouds,300,2013-07-30 20:52:00
5:52 PM,78.1,59.0,52,30.03,10.0,West,3.5,-,N/A,,Clear,280,2013-07-30 21:52:00
6:52 PM,77.0,64.0,64,30.05,10.0,Calm,Calm,-,N/A,,Overcast,0,2013-07-30 22:52:00
7:52 PM,73.9,64.0,71,30.07,10.0,West,3.5,-,N/A,,Overcast,280,2013-07-30 23:52:00
8:52 PM,66.9,62.1,84,30.08,10.0,Calm,Calm,-,N/A,,Scattered Clouds,0,2013-07-31 00:52:00
9:52 PM,63.0,61.0,93,30.09,10.0,Calm,Calm,-,N/A,,Clear,0,2013-07-31 01:52:00
10:52 PM,62.1,60.1,93,30.09,10.0,Calm,Calm,-,N/A,,Clear,0,2013-07-31 02:52:00
11:52 PM,61.0,59.0,93,30.08,9.0,WNW,3.5,-,N/A,,Clear,290,2013-07-31 03:52:00